Change the Weather History Date:

Friday, January 11, 2013

  Actual Average Record
Temperature  
Mean Temperature 84 °F -  
Max Temperature 93 °F 89 °F 93 °F (2013)
Min Temperature 76 °F 73 °F 64 °F (2012)
Cooling Degree Days 20    
Growing Degree Days 34 (Base 50)    
Moisture  
Dew Point 65 °F    
Average Humidity 45    
Maximum Humidity 65    
Minimum Humidity 27    
Precipitation  
Precipitation 0.00 in - - ()
Sea Level Pressure  
Sea Level Pressure 29.75 in    
Wind  
Wind Speed 18 mph ()    
Max Wind Speed 29 mph    
Max Gust Speed 40 mph    
Visibility 12.0 miles    
Events      
Averages and records for this station are not official NWS values.
T = Trace of Precipitation, MM = Missing Value Source: Averaged Metar Reports

Daily Weather History Graph

Daily Weather History Graph

Search for Another Location

Airport or City:

Trip Planner

Search our weather history database for the weather conditions in past years. The results will help you decide how hot, cold, wet, or windy it might be!

Date:

Astronomy

Jan. 11, 2013 Rise Set
Actual Time 6:03 AM CST 5:36 PM CST
Civil Twilight 5:41 AM CST 5:59 PM CST
Nautical Twilight 5:14 AM CST 6:25 PM CST
Astronomical Twilight 4:48 AM CST 6:51 PM CST
Moon 5:43 AM CST (1/11) 5:43 PM CST (1/11)
Length of Visible Light 12h 18m
Length of Day
11h 33m
Waning Crescent, 0% of the Moon is Illuminated
Jan 11
Waning Crescent
Jan 11
New
Jan 18
First Quarter
Jan 26
Full
Feb 3
Last Quarter

Hourly Weather History & Observations

Time (CST) Temp. Heat Index Dew Point Humidity Pressure Visibility Wind Dir Wind Speed Gust Speed Precip Events Conditions
6:00 AM 79 °F - 65 °F 55% 29.80 in 12 mi ENE 8.1 mph - -  
6:00 AM 78.8 °F - 66.2 °F 65% 29.78 in - ENE 8.1 mph - N/A   Clear
7:00 AM 82.4 °F 83.9 °F 64.4 °F 54% 29.79 in - ENE 18.4 mph - N/A   Clear
8:00 AM 86.0 °F 87.3 °F 64.4 °F 48% 29.80 in - ENE 23.0 mph - N/A   Clear
9:00 AM 88 °F - 64 °F 34% 29.81 in 12 mi ENE 25.3 mph - -  
9:00 AM 87.8 °F 89.4 °F 64.4 °F 46% 29.80 in - ENE 25.3 mph 36.8 mph N/A   Clear
10:00 AM 89.6 °F 91.1 °F 64.4 °F 43% 29.79 in - ENE 21.9 mph - N/A   Clear
11:00 AM 91.4 °F 92.1 °F 62.6 °F 38% 29.76 in - NE 26.5 mph 39.1 mph N/A   Clear
12:00 PM 93 °F - 63 °F 27% 29.75 in 12 mi NE 26.5 mph - -  
12:00 PM 93.2 °F 94.1 °F 62.6 °F 36% 29.74 in - NE 26.5 mph - N/A   Clear
1:00 PM 93.2 °F 94.9 °F 64.4 °F 38% 29.71 in - ENE 25.3 mph - N/A   Clear
2:00 PM 93.2 °F 94.9 °F 64.4 °F 38% 29.69 in - ENE 24.2 mph - N/A   Clear
3:00 PM 92 °F - 65 °F 30% 29.70 in 12 mi ENE 26.5 mph - -  
3:00 PM 91.4 °F 93.2 °F 64.4 °F 41% 29.69 in - ENE 26.5 mph - N/A   Clear
4:00 PM 87.8 °F 90.4 °F 66.2 °F 49% 29.71 in - ENE 28.8 mph 40.3 mph N/A   Clear
5:00 PM 86.0 °F 87.3 °F 64.4 °F 48% 29.72 in - ENE 24.2 mph - N/A   Clear
6:00 PM 83 °F - 66 °F 46%  in 12 mi ENE 24.2 mph - -  
6:00 PM 82.4 °F 84.6 °F 66.2 °F 58% 29.73 in - ENE 24.2 mph 35.7 mph N/A   Clear
7:00 PM 82.4 °F 83.9 °F 64.4 °F 54% 29.76 in - ENE 16.1 mph - N/A   Clear
8:00 PM 80.6 °F 82.7 °F 66.2 °F 61% 29.78 in - ENE 19.6 mph - N/A   Clear